Kabul International Airport
OAKB : now visible

Airfield :











YOU CAN JOIN US ON...

 
LOGIN :

Register | Disclaimer

   EN    FR    IT 

 









Legend :    VFR   Marginal VFR   IFR   Intensive IFR   Very Intensive IFR
Visi :
Ceiling :
>= 8 km
>= 3000ft
5 to 8 km
1000 to 3000 ft
1500m to 5 km
500 to 1000 ft
800 to 1500m
200 to 500 ft
< 800m
< 200 ft
Symbols :   Thunderstorms  Fog  Heavy snow  Heavy precipitations  Wind > 20 kt






- Airport Elevation : 5877 ft
- IATA code : KBL


OAKB - Kabul International

CURRENT METAR :
  • 100850Z VRB06KT 9999 FEW050 BKN180 19/05 Q1023 RMK A3023 BLU BLU

EXPIRED METARs :
  • 100750Z 03007KT 9999 FEW050 BKN200 16/02 Q1024 RMK A3024 BLU BLU
  • 100650Z VRB04KT 9999 FEW050 BKN200 16/02 Q1024 RMK A3027 BLU BLU

TAF TAF OAKB
Valid from the 10 at 06:00 until the 11 at 06:00 UTC


100505Z 1006/1106 35006KT 9999 FEW060
PROB30
TEMPO 1009/1012 02010G20KT
BECMG 1012/1014 SCT050 BKN120
BECMG 1020/1022 SCT080



MET'MAP, your aeronautical weather chart ! - Copyright ORBIFLY December 2007 - Disclaimer

ORBIFLY MET'MAP TEAM :

Programming & Development : Alexandra Zaïnal
Concept & original design : Baudouin d'Aumeries
Assistance for programming : Marc-Olivier Méhu
Technical & hardware support : Manuel Goepfert

Contact : metmap@orbifly.com




SOURCES & CREDITS :

   NOAA       Earth
Advisory